sat.trackr.live / text

‹ back to catalog

STARLINK-31362

NORAD 58935 · 2024-027E

PAYLOAD ACTIVE UNKNOWN

§ Identity

Operator
Country
US
Launch date
2024-02-10
Launch site
AFWTR
Launch vehicle
Mass (kg)
RCS (m²)

Purposes: comms

External: N2YO · Heavens-Above · Gunter

§ Orbital elements

Epoch: 2026-09-20T00:56:54.291264Z

Period
93.85 min
Inclination
53.1595°
Eccentricity
0.0001163
Mean motion
15.34391407 rev/d
Perigee alt
461.9 km
Apogee alt
463.5 km
Semi-major
6,840.9 km
B*
4.7731e-5
RAAN
125.5060°
Arg perigee
88.2686°
Mean anomaly
271.8450°
Rev number
14,710

§ Raw data

STARLINK-313621 58935U 24027E   26263.03951726  .00001236  00000+0  47731-4 0  99942 58935  53.1595 125.5060 0001163  88.2686 271.8450 15.34391407147105

JSON: /api/v1/satellites/58935 · /tle

For live sub-satellite position, see the globe view (requires WebGL).

§ Visibility from observer

Set your observer location to see the next 7 days of passes ≥ 10°. The values pass through the URL so the page stays shareable.

No JS? Fill the form by hand. The geolocation button needs JavaScript.